Location: Augsburg
(48.3836°N, 10.8929°E)
Time: 08:39:31
(UTC+01:00)

N. Korean satellite - Visible Passes

Search period start: 19 February 2018 00:00
Search period end: 01 March 2018 00:00
Orbit: 459 x 514 km, 97.2° (Epoch: 18 February)

Date Brightness Start Highest point End Pass type
(mag) Time Alt. Az. Time Alt. Az. Time Alt. Az.
19 Feb 10.3 19:22:20 10° WSW 19:23:23 11° W 19:24:26 10° WNW visible
20 Feb 9.5 18:56:47 10° SW 18:59:25 20° W 19:02:05 10° NW visible
21 Feb 9.4 06:19:23 10° NE 06:22:26 25° E 06:25:32 10° SSE visible
21 Feb 8.3 18:32:18 10° SSW 18:35:32 37° W 18:38:49 10° NNW visible
22 Feb 10.2 05:56:30 10° ENE 05:58:31 14° E 06:00:33 10° ESE visible
23 Feb 10.3 19:20:37 10° WSW 19:21:52 12° W 19:23:08 10° WNW visible
24 Feb 9.5 18:55:12 10° SW 18:57:54 21° W 19:00:38 10° NW visible
25 Feb 9.5 06:17:53 10° NE 06:20:57 24° E 06:24:02 10° SSE visible
25 Feb 8.2 18:30:43 10° SSW 18:34:00 39° W 18:37:20 10° NNW visible
26 Feb 10.3 05:55:01 10° ENE 05:57:01 14° E 05:59:00 10° ESE visible
27 Feb 10.2 19:18:51 10° WSW 19:20:18 12° W 19:21:46 10° WNW visible
28 Feb 9.5 18:53:32 10° SW 18:56:19 22° W 18:59:09 10° NW visible
